Hourly Data Report for October 03, 2013

All times are specified in Local Standard Time (LST). Add 1 hour to adjust for Daylight Saving Time where and when it is observed.

KITCHENER/WATERLOO
ONTARIO

43°27'39.000" N
80°22'43.000" W
321.60 m
6144239
71368
YKF

Download Data

Hourly Data (October 2013)
Hourly Data Report for October 3, 2013
Temp Definition
°C
Dew Point Temp Definition
°C
Rel Hum Definition
%
Wind Dir Definition
10's deg

Wind Spd Definition
km/h
Visibility Definition
km
Stn Press Definition
kPa
Hmdx Definition


Wind Chill Definition


Weather Definition


TIME
00:00 Legend Double Dagger 5.9 4.8 93 LegendMM 4 16.1 98.15     LegendNANA
01:00 Legend Double Dagger 5.3 4.8 96 31 4 16.1 98.17     LegendNANA
02:00 Legend Double Dagger 5.5 4.9 96 35 4 16.1 98.12     LegendNANA
03:00 Legend Double Dagger 5.5 5.1 97 LegendMM 4 16.1 98.13     LegendNANA
04:00 Legend Double Dagger 3.8 3.4 98   0 16.1 98.15     LegendNANA
05:00 Legend Double Dagger 3.9 3.6 98 35 4 16.1 98.17     LegendNANA
06:00 Legend Double Dagger 4.1 3.8 98   0 4.8 98.17     LegendNANA
07:00 Legend Double Dagger 4.9 4.6 98 LegendMM 4 16.1 98.20     LegendNANA
08:00 Legend Double Dagger 9.6 7.7 88 34 5 16.1 98.23     LegendNANA
09:00 Legend Double Dagger 14.3 8.1 66   0 16.1 98.21     LegendNANA
10:00 Legend Double Dagger 18.0 6.5 46 15 11 16.1 98.15     LegendNANA
11:00 Legend Double Dagger 18.7 6.6 45 14 13 16.1 98.11     LegendNANA
12:00 Legend Double Dagger 19.8 4.6 36 11 15 16.1 98.04     LegendNANA
13:00 Legend Double Dagger 20.5 5.4 37 11 15 16.1 97.94     LegendNANA
14:00 Legend Double Dagger 21.1 5.6 36 8 15 16.1 97.90     LegendNANA
15:00 Legend Double Dagger 21.0 6.5 39 10 13 16.1 97.88     LegendNANA
16:00 Legend Double Dagger 20.4 8.1 45 10 17 16.1 97.83     LegendNANA
17:00 Legend Double Dagger 18.8 9.1 53 12 9 16.1 97.85     LegendNANA
18:00 Legend Double Dagger 17.4 8.2 54 11 9 16.1 97.88     LegendNANA
19:00 Legend Double Dagger 14.8 8.6 66 9 9 16.1 97.84     LegendNANA
20:00 Legend Double Dagger 13.6 8.9 73 11 8 16.1 97.84     LegendNANA
21:00 Legend Double Dagger 15.6 8.4 62 10 8 16.1 97.87     LegendNANA
22:00 Legend Double Dagger 15.4 9.0 65 13 8 16.1 97.86     LegendNANA
23:00 Legend Double Dagger 15.3 10.3 72 10 4 16.1 97.84     LegendNANA

Notes on Data Quality.

Legend

  • E = Estimated
  • M = Missing
  • NA = Not Available
  • ‡ = Partner data that is not subject to review by the National Climate Archives
Date modified: